Location: Niverville
(49.6028°N, 97.0419°W)
Time: 00:29:32
(UTC-05:00)

Daily predictions for brighter satellites

Satellite Brightness Start Highest point End
(mag) Time Altitude Azimuth Time Altitude Azimuth Time Altitude Azimuth
Cosmos 1844 Rocket 3.3 00:01:20 10° NW 00:06:32 41° WSW 00:07:24 38° SW
Cosmos 2084 4.0 00:04:27 10° NW 00:07:20 49° NW 00:07:20 49° NW
Cosmos 1553 Rocket 4.0 00:07:58 49° SSW 00:09:48 80° W 00:16:04 10° N
Cosmos 1674 Rocket 3.7 00:13:42 72° NNW 00:13:42 72° NNW 00:17:41 10° N
Cosmos 1898 Rocket 3.3 00:10:40 10° NNW 00:15:53 86° ENE 00:16:08 81° SE
Cosmos 990 Rocket 4.2 00:10:52 10° NNW 00:15:56 55° ENE 00:16:20 53° E
CZ-2C R/B 3.7 00:12:56 10° NNE 00:17:28 32° E 00:17:28 32° E
ALOS 2 3.3 00:18:57 44° NE 00:18:57 44° NE 00:22:51 10° N
Meteor 1-11 Rocket 4.0 00:14:18 10° NNW 00:19:41 53° W 00:20:33 48° SW
H-2A R/B 4.0 00:21:27 19° W 00:21:54 19° W 00:25:02 10° NW
Cosmos 2219 Rocket 2.1 00:27:00 69° SW 00:27:43 86° WNW 00:33:24 10° NNE
Cosmos 1536 3.6 00:24:15 10° NNW 00:27:30 48° NW 00:27:30 48° NW
NOSS 0 Rocket 3.8 00:29:03 68° SSE 00:29:32 71° ESE 00:35:41 10° NE
Okean 3 4.0 00:31:41 54° NNE 00:31:41 54° NNE 00:34:58 10° N
Cosmos 1975 Rocket 3.8 00:35:14 45° NE 00:35:14 45° NE 00:38:39 10° NNE
S3M 4.4 00:36:14 40° SW 00:38:07 54° WNW 00:44:13 10° N
Cosmos 1812 4.4 00:41:09 29° NE 00:41:09 29° NE 00:43:20 10° NNE
Cosmos 883 Rocket 4.3 00:39:25 69° S 00:40:16 90° ESE 00:46:26 10° N
USA 81 4.1 00:42:15 65° E 00:42:15 65° E 00:47:22 10° NNE
Cosmos 1709 Rocket 3.9 00:37:02 10° N 00:43:27 84° W 00:44:25 66° S
Iridium 4 Rocket 4.4 00:40:35 10° NNW 00:44:04 29° WNW 00:44:04 29° WNW
NOSS 3-1 (C) 3.3 00:43:38 64° SW 00:44:39 87° SE 00:51:25 10° NE
Cosmos 2297 3.5 00:39:34 10° NNW 00:45:20 88° ENE 00:45:40 80° SE
Terra 3.9 00:44:38 16° W 00:45:21 17° W 00:48:23 10° NW
Cosmos 1814 Rocket 4.4 00:48:19 49° ENE 00:48:19 49° ENE 00:52:32 10° NNE
Meteor 1-12 Rocket 4.4 00:41:49 10° N 00:47:39 64° ENE 00:48:15 60° ESE
USA 229 DEB 4.3 00:41:00 10° WSW 00:47:44 55° NW 00:54:39 10° NE
USA 229 4.3 00:41:06 10° WSW 00:47:50 55° NW 00:54:44 10° NE
COSMOS 2428 3.8 00:46:58 22° WSW 00:50:09 41° NW 00:55:34 10° NNE
Cosmos 2369 Rocket 3.9 00:49:08 10° NNW 00:53:49 26° NE 00:56:56 17° E
ATLAS CENTAUR R/B 3.8 01:00:33 14° ENE 01:00:33 14° ENE 01:01:16 10° ENE
NOSS 3-1 (A) 3.3 00:57:56 73° SSW 00:58:32 82° SE 01:05:17 10° NE
Cosmos 2298 Rocket 4.5 00:54:29 10° NNW 00:59:22 50° W 00:59:22 50° W
USA 267 3.9 00:54:18 10° E 01:00:37 53° NNE 01:06:57 10° WNW
ATLAS 2AS CENTAUR R/B 3.8 01:00:29 33° ESE 01:00:38 33° ESE 01:07:34 10° NE
Cosmos 468 Rocket 3.9 01:03:16 85° NNW 01:03:16 85° NNW 01:08:32 10° NNE
Cosmos 2074 Rocket 3.9 01:04:04 10° N 01:10:19 73° E 01:11:02 66° SE
Cosmos 2285 Rocket 3.9 01:10:31 71° SSE 01:11:04 76° ESE 01:17:28 10° NNE
Cosmos 1980 3.9 01:10:20 59° W 01:11:07 66° WNW 01:16:47 10° NNE
SL-16 R/B 2.3 01:15:11 61° E 01:15:11 61° E 01:20:28 10° NE
Cosmos 1544 Rocket 4.2 01:14:06 10° NNW 01:17:35 51° NW 01:17:35 51° NW
Cosmos 1943 Rocket 4.2 01:15:55 10° NNW 01:20:31 24° NE 01:25:04 10° E
Cosmos 841 Rocket 3.8 01:22:14 58° ENE 01:22:14 58° ENE 01:26:44 10° NNE
CZ-2C R/B 3.5 01:26:39 45° WNW 01:26:39 45° WNW 01:30:45 10° NNW
CZ-4B R/B 3.5 01:30:39 27° N 01:30:39 27° N 01:32:20 10° N
CZ-4C R/B 3.5 01:23:32 10° NW 01:29:59 38° WSW 01:30:05 38° WSW
Cosmos 2333 Rocket 3.2 01:28:48 32° W 01:30:47 42° NW 01:36:17 10° NNE
ATLAS 3B R/B 2.6 01:29:43 10° NW 01:36:40 81° NE 01:38:27 52° SE
Cosmos 2278 Rocket 3.9 01:34:39 10° NW 01:37:59 19° W 01:37:59 19° W
Cosmos 1607 3.9 01:32:29 10° NW 01:38:53 85° NE 01:39:59 63° SE
Cosmos 1975 4.3 01:35:02 10° NNW 01:37:29 32° NW 01:37:29 32° NW
Cosmos 2237 Rocket 3.0 01:38:23 38° W 01:39:50 46° NW 01:45:20 10° NNE
Meteor 1-18 Rocket 4.4 01:40:32 62° WSW 01:41:02 65° WNW 01:46:54 10° N
Cosmos 1340 4.4 01:42:38 30° NNW 01:42:38 30° NNW 01:45:03 10° N
Cosmos 371 Rocket 3.5 01:42:29 71° N 01:42:29 71° N 01:46:56 10° NNE
Meteor 1-13 Rocket 4.3 01:43:14 63° ESE 01:43:33 64° E 01:49:25 10° NNE
Cosmos 1455 Rocket 4.3 01:43:48 10° NNW 01:47:00 36° WNW 01:47:00 36° WNW
USA 238 DEB 3.8 01:41:45 10° NW 01:48:51 75° NE 01:52:03 36° ESE
USA 238 3.8 01:41:51 10° NW 01:48:56 75° NE 01:52:12 35° ESE
Meteor 2-4 Rocket 4.1 01:52:18 49° E 01:52:24 49° E 01:57:37 10° NNE
Meteor 1-19 Rocket 4.2 01:55:30 70° SE 01:55:54 73° E 02:01:48 10° NNE
Meteor 2-13 Rocket 4.5 01:51:19 10° NNW 01:57:20 62° W 01:57:42 61° WSW
Cosmos 304 Rocket 4.5 01:58:16 46° E 01:58:16 46° E 02:02:16 10° NNE
H-2A R/B 3.6 01:53:52 10° NNE 01:56:23 36° NE 01:56:23 36° NE
CZ-2C R/B 3.3 01:53:06 10° N 01:58:14 44° WNW 01:58:59 42° W
Cosmos 332 Rocket 4.4 02:00:18 47° WNW 02:00:21 47° WNW 02:05:02 10° NNE
Cosmos 1125 Rocket 3.9 02:01:40 10° NNW 02:06:13 51° W 02:06:13 51° W
USA 215 3.4 02:02:03 10° ENE 02:08:27 53° SE 02:08:48 53° SSE
Cosmos 2219 Rocket 4.2 02:08:40 11° W 02:12:32 21° NW 02:16:49 10° N
Cosmos 1943 4.1 02:12:41 34° ESE 02:12:57 35° ESE 02:18:01 10° NE
COSMOS 2455 4.4 02:09:04 10° NNW 02:14:31 33° NE 02:19:55 10° ESE
Nadezhda 1 Rocket 4.0 02:17:25 60° WSW 02:18:17 68° WNW 02:24:31 10° N
SL-8 Rocket 4.3 02:13:33 10° N 02:19:40 61° ENE 02:21:25 44° SE
NOSS 3-2 (C) 4.4 02:12:45 10° NW 02:19:53 59° NE 02:27:44 10° ESE
Cosmos 1763 Rocket 4.4 02:21:57 36° W 02:22:48 38° WNW 02:27:44 10° NNE
NOSS 2-3 (D) 3.9 02:24:19 82° SE 02:24:21 82° SE 02:30:13 10° NE
Cosmos 1461 4.1 02:21:14 10° NNW 02:25:05 39° NE 02:26:10 33° E
Cosmos 44 4.3 02:24:46 10° NNW 02:28:56 39° NE 02:31:14 22° E
PSLV R/B 4.3 02:31:07 63° NE 02:31:07 63° NE 02:34:51 10° N
Cosmos 1603 3.5 02:32:00 73° SSW 02:32:37 89° ESE 02:38:25 10° NNE
PSLV R/B 3.8 02:31:08 10° NNE 02:35:46 71° E 02:35:46 71° E
Cosmos 1238 Rocket 3.5 02:35:49 62° W 02:35:55 62° WNW 02:41:34 10° N
ATLAS CENTAUR R/B 2.2 02:36:49 46° NW 02:36:49 46° NW 02:40:31 10° NNE
CENTAUR R/B 4.2 02:30:31 10° NW 02:37:29 41° NNE 02:45:08 10° E
Cosmos 1295 Rocket 4.3 02:31:57 10° NNW 02:38:03 81° W 02:39:07 62° SSW
Cosmos 2369 Rocket 2.0 02:32:48 10° NNW 02:38:24 72° WSW 02:38:41 71° SW
Cosmos 2341 Rocket 4.0 02:34:12 10° NNW 02:40:21 65° W 02:41:17 58° SW
USA 267 3.1 02:36:53 10° SE 02:43:27 84° SW 02:50:02 10° WNW
Meteor 1-23 Rocket 4.1 02:43:44 68° SSW 02:44:27 82° WNW 02:50:06 10° N
Cosmos 1606 Rocket 3.8 02:43:22 10° NNW 02:47:13 60° NW 02:47:13 60° NW
ATLAS 2AS CENTAUR R/B 3.1 02:47:52 41° SW 02:51:03 79° NW 02:59:17 10° NE
Gbstr 26 Del rocket 4.4 02:47:37 36° WSW 02:51:28 86° SSE 02:59:03 10° ENE
Cosmos 405 Rocket 3.9 02:55:36 34° NW 02:55:36 34° NW 02:58:17 10° N
Resurs 1-4 Rocket 4.0 02:51:20 10° NE 02:55:18 21° E 02:58:03 15° SE
Meteor 1-15 Rocket 4.4 02:49:39 10° NNW 02:55:23 57° W 02:55:58 54° WSW
Cosmos 1515 4.1 02:56:46 59° NE 02:56:46 59° NE 03:00:04 10° NNE
Cosmos 2228 3.0 02:51:57 10° N 02:56:24 80° E 02:56:28 79° E
CZ-2D R/B 4.0 02:54:35 10° NE 02:58:44 22° E 03:01:33 15° SE
SL-16 R/B 3.6 02:57:02 22° W 02:59:22 30° NW 03:04:22 10° NNE
Helios 1A Rocket 3.0 02:55:59 10° NNE 02:59:45 71° NNW 02:59:45 71° NNW
Cosmos 1241 Rocket 4.5 02:58:57 52° SSW 03:00:46 85° SE 03:07:26 10° NE
NOSS 3-2 (A) 3.9 02:55:01 10° NW 03:02:23 84° SW 03:10:27 10° SE
Cosmos 1943 Rocket 2.1 02:59:15 10° NNW 03:04:57 82° WSW 03:06:33 49° SSE
Cosmos 1959 Rocket 4.4 02:59:52 10° NNW 03:06:07 78° W 03:07:58 48° S
SL-08 R/B 4.4 03:00:10 10° N 03:06:32 86° W 03:08:37 45° S
Cosmos 540 Rocket 4.2 03:06:23 36° W 03:07:21 40° WNW 03:12:12 10° NNE
Cosmos 292 Rocket 4.1 03:07:41 51° SE 03:08:23 57° ESE 03:13:10 10° NNE
Cosmos 1726 Rocket 4.1 03:06:37 10° NNW 03:10:24 45° WNW 03:10:24 45° WNW
Cosmos 44 Rocket 3.0 03:08:28 10° NW 03:13:14 79° SW 03:13:42 70° S
AQUA 4.3 03:10:13 10° NNE 03:14:53 52° E 03:16:06 41° SE
Cosmos 1809 Rocket 4.3 03:09:10 10° NNW 03:15:18 79° W 03:17:19 45° S
Okean 2 4.2 03:20:34 40° WNW 03:20:34 40° WNW 03:24:20 10° N
Cosmos 1812 Rocket 4.1 03:17:02 10° N 03:21:23 55° ENE 03:23:01 34° SE
Cosmos 1025 Rocket 4.1 03:21:37 32° WNW 03:21:38 32° WNW 03:25:34 10° N
Meteor 1-4 Rocket 3.6 03:18:25 10° N 03:22:07 45° ENE 03:23:11 35° ESE
ATLAS 3B R/B 3.7 03:21:16 10° WNW 03:25:39 25° W 03:25:39 25° W
CBERS-1 4.0 03:26:32 10° NNE 03:31:42 80° ESE 03:33:18 45° S
H-2A R/B 4.4 03:30:26 10° NNW 03:32:51 16° WNW 03:33:01 16° WNW
Cosmos 1437 Rocket 4.0 03:30:50 10° NNW 03:33:22 28° WNW 03:33:22 28° WNW
IRS-1C 4.3 03:29:14 10° NNE 03:34:35 69° ESE 03:36:45 36° S
Cosmos 2058 Rocket 3.9 03:31:21 10° NNW 03:35:00 35° W 03:35:00 35° W
Cosmos 1680 Rocket 4.1 03:34:11 32° SSE 03:36:18 49° ESE 03:41:23 10° NNE
Aureole 1 Rocket 3.9 03:35:18 33° SSE 03:37:16 51° ESE 03:41:29 10° NE
SL-16 R/B 2.5 03:34:30 20° SSE 03:39:00 86° ENE 03:45:13 10° NNW
USA 238 DEB 4.5 03:33:17 10° NW 03:39:17 31° WSW 03:39:25 31° WSW
USA 238 4.5 03:33:22 10° NW 03:39:25 31° WSW 03:39:34 31° WSW
Cosmos 1821 Rocket 4.4 03:34:42 10° N 03:40:45 61° ENE 03:46:39 11° SSE
IRS-1D 4.2 03:36:42 10° NNE 03:41:45 50° E 03:44:36 25° SSE
EXPRESS MD2 4.1 03:36:00 10° W 03:44:27 88° N 03:48:23 10° E
Cosmos 2218 Rocket 4.5 03:39:16 10° NNW 03:45:05 42° W 03:46:46 35° SW
Cosmos 1656 Rocket 3.5 03:45:59 10° NNW 03:51:25 76° WSW 03:56:00 15° SSE
USA 215 3.5 03:45:07 10° ENE 03:51:37 68° NNW 03:56:08 21° WSW
Cosmos 2366 rocket 4.5 03:45:46 10° NNW 03:51:40 42° W 03:53:41 33° SW
GEOS 3 Rocket 3.9 03:47:06 10° NE 03:52:20 59° SE 03:54:37 33° SSW
Lacrosse 5 rocket 4.1 03:51:24 10° SE 03:52:38 11° ESE 03:53:52 10° ESE
Cosmos 1626 Rocket 3.5 03:52:49 48° SSW 03:53:59 74° W 03:58:23 10° N
Genesis I 3.0 03:52:49 10° NW 03:56:48 75° SW 03:59:58 15° SSE
Cosmos 1943 3.8 03:54:30 30° WSW 03:56:53 47° NW 04:02:20 10° NNE
ARIANE 5 R/B 2.9 03:51:44 10° NNE 03:56:58 63° ESE 04:00:03 24° S
UNK 3.6 03:55:06 34° S 03:57:03 75° WSW 04:01:40 10° NNW
IRS-P3 4.4 03:52:31 10° N 03:57:45 56° WNW 03:59:49 34° SW
COSMOS 2455 2.8 03:54:55 10° NW 04:00:54 67° WSW 04:06:51 10° SSE
SL-08 R/B 4.0 04:00:59 33° WSW 04:01:27 34° W 04:05:48 10° NNW
Cosmos 1371 Rocket 4.1 03:57:22 10° NNW 04:02:47 86° ENE 04:08:10 10° SSE
Cosmos 1825 Rocket 4.3 04:01:11 20° SSE 04:03:59 50° E 04:08:15 10° NNE
Cosmos 1461 4.3 04:00:31 10° WNW 04:02:33 23° WNW 04:02:33 23° WNW
Okean O Rocket 4.4 04:02:28 10° ENE 04:04:25 13° E 04:06:22 10° ESE
RESURS DK-1 3.2 04:04:08 28° SSE 04:05:51 44° ESE 04:09:49 10° NE
Cosmos 1934 Rocket 4.2 04:00:18 10° N 04:06:35 74° E 04:12:55 10° SSE
Cosmos 1805 3.3 04:03:51 10° N 04:07:49 81° E 04:10:07 24° SSE
Cosmos 923 Rocket 4.0 04:06:20 33° SW 04:08:47 75° WNW 04:14:10 10° NNE
Cosmos 44 3.7 04:06:07 10° NW 04:09:34 33° WSW 04:09:34 33° WSW
NOSS 3-2 (C) 4.2 04:03:50 10° NW 04:10:55 48° WSW 04:18:34 10° SSE
Cosmos 1271 Rocket 2.8 04:08:09 10° N 04:11:56 71° ENE 04:14:45 17° SSE
OPS 6432 4.0 04:12:47 59° SW 04:13:18 88° SE 04:16:20 10° NE
Cosmos 1602 Rocket 3.9 04:12:37 35° SW 04:14:05 49° WNW 04:18:26 10° N
Orbus 7S? 3.9 04:09:53 10° NW 04:14:47 54° NNE 04:17:34 10° ESE
ATLAS CENTAUR R/B 3.9 04:14:22 10° NW 04:16:32 14° NNW 04:18:37 10° N
NPP 4.3 04:14:54 10° N 04:19:57 42° WNW 04:22:32 25° WSW
Cosmos 1766 3.8 04:17:07 10° NNW 04:20:52 39° W 04:21:45 34° SW
Tiangong 1 3.0 04:22:00 16° SE 04:22:00 16° SE 04:23:05 10° SE
Cosmos 2369 Rocket 4.1 04:19:18 10° WNW 04:20:27 12° W 04:20:27 12° W
COBE Rocket 4.0 04:18:27 10° NNE 04:23:36 86° ESE 04:27:07 20° SSW
Cosmos 1842 3.1 04:22:47 32° SSW 04:24:30 76° W 04:28:24 10° N
Cosmos 192 4.4 04:23:36 23° SSW 04:26:39 79° ESE 04:31:37 10° NNE
USA 267 3.9 04:21:28 10° S 04:27:04 30° SW 04:32:41 10° WNW
CENTAUR R/B 3.0 04:21:16 10° NW 04:29:01 84° SW 04:37:24 10° SE
Abrixas 2.8 04:30:37 40° S 04:30:54 41° SSE 04:33:36 10° E
Cosmos 1544 3.4 04:29:37 10° NNW 04:33:12 47° W 04:34:44 28° SSW
ADEOS Rocket 3.0 04:28:14 10° NNE 04:34:03 73° WNW 04:38:59 18° SSW
Cosmos 839 Rocket 4.1 04:28:19 10° NW 04:34:33 90° NE 04:41:39 10° SE
Resurs 1-4 Rocket 2.2 04:30:23 10° N 04:35:36 63° WNW 04:39:08 21° SW
NOSS 8 (A) 4.4 04:35:44 30° SSW 04:37:12 76° SE 04:40:49 10° NE
Cosmos 2098 Rocket 2.8 04:35:35 10° N 04:38:44 55° ENE 04:41:35 10° SSE
CZ-2D R/B 2.2 04:33:58 10° N 04:39:14 61° WNW 04:42:53 20° SW
NOSS 3-4 (A) 3.6 04:36:35 21° SW 04:41:00 75° NW 04:47:40 10° NE
NOSS 3-4 (C) 3.6 04:36:41 21° SW 04:41:06 76° NW 04:47:46 10° NE
Nadezhda 3 Rocket 4.4 04:38:10 20° SW 04:42:17 48° WNW 04:48:25 10° N
MOZ.5/SAFIR/RUBIN 5/SL-8 3.7 04:38:08 10° S 04:42:45 65° WSW 04:47:26 10° NNW
ATLAS 2AS CENTAUR R/B 4.2 04:36:00 10° W 04:43:19 37° NNW 04:50:44 10° NE
COSMOS 2406 3.2 04:39:50 19° SSW 04:44:04 86° WNW 04:49:53 10° NNE
Cosmos 389 Rocket 2.9 04:40:36 10° N 04:44:15 67° ENE 04:47:51 10° SSE
Cosmos 2112 Rocket 4.2 04:40:54 21° SW 04:44:20 58° WNW 04:49:33 10° NNE
Cosmos 1953 2.4 04:40:34 10° NNW 04:44:28 54° W 04:47:43 14° S
Cosmos 1943 Rocket 3.8 04:44:52 10° WNW 04:47:47 14° W 04:48:01 14° W
Cosmos 1470 2.6 04:49:19 10° NNW 04:53:14 82° W 04:57:08 10° S
Cosmos 1707 3.6 04:51:25 10° S 04:55:11 50° E 04:58:58 10° NNE
Cosmos 1624 Rocket 4.3 04:51:19 10° NW 04:56:15 43° WSW 05:01:10 10° S
Cosmos 1758 Rocket 3.5 04:53:05 14° SSW 04:56:46 70° WNW 05:01:07 10° N
Meteor 1-4 Rocket 4.4 04:54:29 10° NW 04:56:55 16° W 04:57:29 16° W
Cosmos 1656 4.4 04:51:36 10° NNW 04:56:58 55° NE 05:02:17 10° SE
Cosmos 1758 4.1 04:55:36 10° NNW 04:59:21 35° W 05:02:20 14° SSW
Landsat 4 3.6 04:55:40 10° S 04:59:22 69° WSW 05:03:07 10° NNW
USA 161 2.1 04:58:24 18° SSW 05:00:15 37° W 05:03:01 10° NNW
NOSS 2-2 (C) 4.3 04:57:02 12° SSW 05:00:36 48° ESE 05:05:15 10° NE
Cosmos-2242 3.0 04:56:14 10° NNW 05:00:40 75° W 05:05:02 10° S
UNKNOWN OBJECT B 3.1 04:59:55 10° N 05:03:46 51° WNW 05:07:01 14° SW
USA 32 4.3 04:59:28 13° SSW 05:04:02 52° W 05:09:12 10° N
CZ-3A R/B 1.5 05:03:18 15° WNW 05:04:17 29° N 05:07:09 10° ENE
BREEZE-M DEB (TANK) 4.3 05:01:03 14° WSW 05:05:12 85° SSE 05:29:02 10° E
ADEOS 4.3 05:00:34 10° N 05:05:21 38° WNW 05:09:23 14° SW
Cosmos 2056 Rocket 4.1 05:04:18 10° NW 05:09:13 37° WSW 05:14:02 10° SSW
Cosmos 1727 Rocket 4.0 05:03:32 10° S 05:09:44 90° E 05:15:57 10° N
Cosmos 921 Rocket 3.6 05:07:16 10° NW 05:11:23 37° WSW 05:15:32 10° SSW
Cosmos 1153 Rocket 4.4 05:07:22 10° NNW 05:13:32 76° W 05:19:38 10° S
DNEPR-1 R/B 3.5 05:13:32 10° NW 05:17:43 59° SW 05:22:00 10° SSE
Cosmos 1953 Rocket 4.1 05:14:03 12° SW 05:17:58 42° WNW 05:22:15 10° N
Cosmos 2221 4.4 05:15:54 10° N 05:19:53 35° ENE 05:23:48 10° SE
PSLV R/B 4.1 05:16:11 10° NNE 05:20:17 78° ESE 05:24:24 10° S
CZ-4B R/B 3.5 05:17:40 10° NNE 05:21:52 66° ESE 05:26:14 10° S
MOS 1 Rocket 3.2 05:19:08 10° N 05:23:22 58° WNW 05:27:40 10° SSW
SL-16 R/B 3.9 05:19:34 11° SW 05:23:25 19° W 05:27:38 10° NW
Cosmos 1802 Rocket 4.4 05:21:46 10° N 05:28:15 76° E 05:34:40 10° SSE
MTI 4.0 05:25:48 10° SSE 05:29:02 77° ENE 05:32:17 10° N
Cosmos 1378 3.2 05:25:37 10° S 05:29:21 83° E 05:33:07 10° NNE
SL-27 R/B 3.5 05:26:32 11° WSW 05:29:32 31° WNW 05:32:49 10° N
MOS 1-B 4.4 05:23:59 10° NNE 05:29:47 70° WNW 05:35:32 10° SSW
Lacrosse 5 rocket 2.2 05:26:30 10° SW 05:31:04 54° SE 05:35:35 10° ENE
Meteor 2-15 4.5 05:27:19 10° SSW 05:33:28 75° WNW 05:39:38 10° N
USA 215 4.1 05:27:59 10° ENE 05:34:10 47° N 05:40:22 10° WNW
IRS-1C Rocket 4.4 05:29:16 10° NNE 05:34:32 71° ESE 05:39:48 10° S
ARIANE 5 R/B 3.9 05:31:35 10° N 05:35:41 24° WNW 05:39:46 10° WSW
Meteor 2-15 Rocket 4.5 05:34:57 10° SSW 05:41:06 77° WNW 05:47:17 10° N
Okean O Rocket 1.6 05:36:56 10° NNE 05:41:25 83° WNW 05:45:50 10° SSW
Cosmos 1733 4.4 05:38:21 10° NW 05:41:28 24° W 05:44:33 10° SW
CZ-4B DEB 4.4 05:36:37 10° NNE 05:42:11 79° ESE 05:47:40 10° SSW
RESURS DK-1 3.8 05:40:35 10° WSW 05:44:05 26° NW 05:47:37 10° N
Cosmos 1452 Rocket 3.9 05:39:34 10° NW 05:44:31 43° WSW 05:49:26 10° S
Cosmos 1459 Rocket 4.0 05:38:29 10° NNW 05:44:36 75° W 05:50:47 10° S
ADEOS II 2.1 05:40:03 10° NNE 05:45:20 86° WNW 05:50:36 10° SSW
COSMOS 2455 4.5 05:43:16 10° WNW 05:45:43 13° W 05:48:10 10° SW
